Погода в Вахрушеве

Россия / Сахалинская область     48°59′39″N   142°51′29″E
темп.,
°C
ветер,
м/с
пор.,
м/с
влажн.,
%
обл.,
%
осадки,
мм/ч
давл.,
гПа
погр.,
м
8 мая, сб
сб823:00+3ссв2296100 0.0 100456
02:00+1св1198100 0.0 100432
05:00+1ссв1198100 0.0 100324
08:00+2всв129599 0.0 1002153
11:00+7св2272100 0.0 1000360
14:00+8вюв1266100 0.0 1000466
17:00+7юв2277100 0.2 1000258
20:00+5ю1193100 1.1 100255
9 мая, вс
вс923:00+5сз1195100 3.8 100227
02:00+5ссв019698 1.8 100322
05:00+4сз009619 1.8 100311
08:00+4в119585 0.0 1004208
11:00+7всв118598 0.0 1004480
14:00+10в2268100 0.0 1002900
17:00+7вюв2283100 0.0 1003358
20:00+3юв2289100 0.0 1004198
10 мая, пн
пн1023:00+2вюв1193100 0.0 100360
02:00+2св1293100 0.0 1002164
05:00+2всв1295100 0.0 1002170
08:00+2св2997100 0.2 1001550
11:00+2ссв31198100 1.4 1001544
14:00+3ссв51394100 0.6 1002884
17:00+3ссв51193100 0.9 1004815
20:00+2ссв41197100 0.4 1007766
11 мая, вт
вт1123:00+2ссв31097100 0.8 1010706
02:00+2ссв2998100 0.3 1011684
05:00+2ссв2898100 0.7 1013592
08:00+3ссв269268 0.0 1015448
11:00+6св355734 0.0 1015941
14:00+9в344244 0.0 10151328
17:00+8вюв324659 0.0 1016819
20:00+4юв246268 0.0 1017284
12 мая, ср
ср1223:00+1ю237654 0.0 101989
02:00+1ююз127396 0.0 101983
05:00+1зюз118786 0.0 101925
08:00+4зюз118267 0.0 1019286
11:00+9ююв125786 0.0 10181161
14:00+8юв235795 0.0 1018835
17:00+9ююв125999 0.1 1017978
20:00+7ююв127464 0.0 101760